Location: Wald
(31.7579°N, 86.6655°W)
Time: 12:17:52
(UTC+00:00)

Gbstr 26 Del rocket - Pass Details

Date: 14 July 2020
Orbit: 492 x 1264 km, 51.8° (Epoch: 08 August)

Event Time Altitude Azimuth Distance (km) Brightness Sun altitude
Rises 10:18:15 0° 309° (NW) 2,938 6.3 -7.1°
Reaches altitude 10° 10:20:25 10° 304° (NW) 2,123 5.6 -6.7°
Maximum altitude 10:25:11 53° 228° (SW) 957 3.7 -5.8°
Drops below altitude 10° 10:31:06 10° 153° (SSE) 2,619 6.3 -4.7°
Sets 10:34:01 0° 149° (SSE) 3,694 7.1 -4.2°
